Weather History for KIOW - April, 2013

Change the Weather History Date:

Saturday, April 13, 2013

  Actual Average Record
Temperature  
Mean Temperature 42 °F 50 °F  
Max Temperature 51 °F 61 °F 88 °F (2006)
Min Temperature 33 °F 39 °F 20 °F (1950)
Degree Days  
Heating Degree Days 23 15  
Month to date heating degree days 268 221  
Since 1 July heating degree days 6008 5988  
Cooling Degree Days 0 0  
Month to date cooling degree days 0 0  
Year to date cooling degree days 0 0  
Moisture  
Dew Point 29 °F    
Average Humidity 61    
Maximum Humidity 75    
Minimum Humidity 46    
Precipitation  
Precipitation 0.02 in 0.11 in 2.08 in (2014)
Month to date precipitation 3.06 1.17  
Year to date precipitation 7.94 5.55  
Sea Level Pressure  
Sea Level Pressure 29.97 in    
Wind  
Wind Speed 11 mph (WNW)    
Max Wind Speed 21 mph    
Max Gust Speed 25 mph    
Visibility 10 miles    
Events      
T = Trace of Precipitation, MM = Missing Value Source: NWS Daily Summary

Daily Weather History Graph

Daily Weather History Graph

Search for Another Location

Airport or City:

Trip Planner

Search our weather history database for the weather conditions in past years. The results will help you decide how hot, cold, wet, or windy it might be!

Date:

Astronomy

Apr. 13, 2013 Rise Set
Actual Time 6:28 AM CDT 7:44 PM CDT
Civil Twilight 6:00 AM CDT 8:13 PM CDT
Nautical Twilight 5:25 AM CDT 8:48 PM CDT
Astronomical Twilight 4:49 AM CDT 9:24 PM CDT
Moon 8:18 AM CDT (4/13) 11:11 PM CDT (4/13)
Length of Visible Light 14h 13m
Length of Day
13h 15m
Waxing Crescent, 10% of the Moon is Illuminated
Apr 13
Waxing Crescent
Apr 18
First Quarter
Apr 25
Full
May 2
Last Quarter
May 9
New

Hourly Weather History & Observations

Time (CDT) Temp. Windchill Dew Point Humidity Pressure Visibility Wind Dir Wind Speed Gust Speed Precip Events Conditions
12:52 AM 35.1 °F 26.4 °F 28.0 °F 76% 29.96 in 10.0 mi West 12.7 mph - N/A   Overcast
1:52 AM 35.1 °F 26.4 °F 27.0 °F 72% 29.95 in 10.0 mi West 12.7 mph - N/A   Overcast
2:52 AM 34.0 °F 24.2 °F 27.0 °F 75% 29.94 in 10.0 mi West 15.0 mph 21.9 mph N/A   Overcast
3:52 AM 34.0 °F 24.2 °F 27.0 °F 75% 29.95 in 10.0 mi West 15.0 mph 20.7 mph N/A   Overcast
4:52 AM 34.0 °F 23.8 °F 27.0 °F 75% 29.95 in 10.0 mi West 16.1 mph - N/A   Overcast
5:52 AM 34.0 °F 24.2 °F 27.0 °F 75% 29.95 in 10.0 mi West 15.0 mph - N/A   Overcast
6:52 AM 33.1 °F 24.4 °F 26.1 °F 75% 29.97 in 10.0 mi West 11.5 mph - N/A   Scattered Clouds
7:27 AM 33.8 °F 25.3 °F 26.6 °F 75% 29.96 in 10.0 mi West 11.5 mph - N/A   Overcast
7:37 AM 33.8 °F 24.3 °F 26.6 °F 75% 29.96 in 10.0 mi West 13.8 mph - N/A   Overcast
7:52 AM 34.0 °F 23.8 °F 25.0 °F 70% 29.99 in 10.0 mi West 16.1 mph 24.2 mph N/A   Overcast
8:52 AM 35.1 °F 25.2 °F 25.0 °F 67% 30.01 in 10.0 mi West 16.1 mph 24.2 mph N/A   Mostly Cloudy
9:52 AM 37.0 °F 27.0 °F 26.1 °F 65% 30.01 in 10.0 mi WNW 18.4 mph - N/A   Overcast
10:52 AM 37.9 °F 29.6 °F 27.0 °F 65% 30.03 in 10.0 mi WNW 13.8 mph 24.2 mph N/A   Overcast
11:28 AM 41.0 °F 32.8 °F 28.4 °F 61% 30.00 in 10.0 mi WNW 16.1 mph 23.0 mph N/A   Partly Cloudy
11:52 AM 41.0 °F 33.9 °F 28.0 °F 60% 30.02 in 10.0 mi WNW 12.7 mph 20.7 mph N/A   Scattered Clouds
12:52 PM 43.0 °F 35.7 °F 28.0 °F 56% 30.00 in 10.0 mi WNW 15.0 mph 24.2 mph N/A   Overcast
1:52 PM 45.0 °F 37.9 °F 28.9 °F 53% 29.99 in 10.0 mi West 16.1 mph - N/A   Mostly Cloudy
2:52 PM 48.9 °F - 30.0 °F 48% 29.97 in 10.0 mi WNW 12.7 mph 21.9 mph N/A   Scattered Clouds
3:52 PM 48.0 °F - 30.0 °F 50% 29.96 in 10.0 mi West 13.8 mph 20.7 mph N/A   Scattered Clouds
4:52 PM 50.0 °F - 30.0 °F 46% 29.94 in 10.0 mi WSW 12.7 mph - N/A   Scattered Clouds
5:52 PM 48.9 °F - 30.0 °F 48% 29.95 in 10.0 mi West 10.4 mph - N/A   Overcast
6:52 PM 48.9 °F - 30.0 °F 48% 29.93 in 10.0 mi WNW 3.5 mph - N/A   Overcast
7:52 PM 46.9 °F - 32.0 °F 56% 29.92 in 10.0 mi Calm Calm - N/A   Overcast
8:52 PM 46.9 °F - 32.0 °F 56% 29.93 in 10.0 mi Calm Calm - N/A   Overcast
9:52 PM 45.0 °F 43.5 °F 33.1 °F 63% 29.95 in 10.0 mi East 3.5 mph - N/A   Overcast
10:52 PM 46.0 °F 43.9 °F 33.1 °F 61% 29.94 in 10.0 mi East 4.6 mph - N/A   Overcast
11:52 PM 46.0 °F 41.9 °F 32.0 °F 58% 29.93 in 10.0 mi ENE 8.1 mph - N/A   Overcast